| time (UTC) | temp C | wind direction | speed KPH | gust KPH | rain 1hr cm | rain 24hr cm | rain mn cm | humidity % | barometer mb |
| 20260906221605 | 28 | 244 | 1.6 | 11.3 | 0.00 | 0.00 | 0.00 | 32 | 1018.5 |
| 20260906221050 | 29 | 0 | 0.0 | 11.3 | 0.00 | 0.00 | 0.00 | 31 | 1018.5 |
| 20260906220550 | 29 | 0 | 3.2 | 14.5 | 0.00 | 0.00 | 0.00 | 31 | 1018.6 |
| 20260906220106 | 30 | 244 | 1.6 | 14.5 | 0.00 | 0.00 | 0.00 | 31 | 1018.6 |
| 20260906215550 | 30 | 0 | 0.0 | 11.3 | 0.00 | 0.00 | 0.00 | 31 | 1018.6 |
| 20260906215050 | 30 | 244 | 1.6 | 11.3 | 0.00 | 0.00 | 0.00 | 31 | 1018.8 |
| 20260906214557 | 30 | 0 | 1.6 | 12.9 | 0.00 | 0.00 | 0.00 | 31 | 1018.8 |
| 20260906214050 | 29 | 0 | 3.2 | 12.9 | 0.00 | 0.00 | 0.00 | 31 | 1018.9 |
| 20260906213550 | 29 | 244 | 3.2 | 11.3 | 0.00 | 0.00 | 0.00 | 32 | 1019.0 |
| 20260906213054 | 28 | 244 | 1.6 | 12.9 | 0.00 | 0.00 | 0.00 | 31 | 1018.9 |
| 20260906212546 | 28 | 244 | 4.8 | 14.5 | 0.00 | 0.00 | 0.00 | 30 | 1019.0 |
| 20260906212051 | 28 | 0 | 4.8 | 19.3 | 0.00 | 0.00 | 0.00 | 28 | 1019.1 |
| 20260906211607 | 28 | 244 | 4.8 | 19.3 | 0.00 | 0.00 | 0.00 | 29 | 1019.2 |
| 20260906211053 | 28 | 244 | 9.7 | 22.5 | 0.00 | 0.00 | 0.00 | 29 | 1019.2 |
| 20260906210549 | 29 | 244 | 8.0 | 22.5 | 0.00 | 0.00 | 0.00 | 30 | 1019.2 |
| 20260906210059 | 29 | 245 | 8.0 | 22.5 | 0.00 | 0.00 | 0.00 | 29 | 1019.3 |
| 20260906205547 | 29 | 246 | 6.4 | 24.1 | 0.00 | 0.00 | 0.00 | 30 | 1019.3 |
| 20260906205051 | 30 | 250 | 8.0 | 24.1 | 0.00 | 0.00 | 0.00 | 30 | 1019.3 |
| 20260906204610 | 30 | 254 | 9.7 | 19.3 | 0.00 | 0.00 | 0.00 | 31 | 1019.3 |
| 20260906204050 | 30 | 259 | 6.4 | 16.1 | 0.00 | 0.00 | 0.00 | 30 | 1019.5 |
| 20260906203551 | 30 | 260 | 6.4 | 17.7 | 0.00 | 0.00 | 0.00 | 31 | 1019.4 |
| 20260906203103 | 30 | 261 | 8.0 | 17.7 | 0.00 | 0.00 | 0.00 | 31 | 1019.4 |
| 20260906202550 | 30 | 0 | 6.4 | 14.5 | 0.00 | 0.00 | 0.00 | 30 | 1019.5 |
| 20260906202052 | 30 | 262 | 4.8 | 12.9 | 0.00 | 0.00 | 0.00 | 30 | 1019.4 |
| 20260906201613 | 30 | 262 | 3.2 | 14.5 | 0.00 | 0.00 | 0.00 | 30 | 1019.4 |
| 20260906201050 | 30 | 262 | 3.2 | 17.7 | 0.00 | 0.00 | 0.00 | 31 | 1019.5 |
| 20260906200550 | 30 | 269 | 3.2 | 17.7 | 0.00 | 0.00 | 0.00 | 29 | 1019.6 |
| 20260906200101 | 30 | 273 | 6.4 | 16.1 | 0.00 | 0.00 | 0.00 | 28 | 1019.8 |
| 20260906195547 | 30 | 275 | 4.8 | 16.1 | 0.00 | 0.00 | 0.00 | 30 | 1019.6 |
| 20260906195053 | 30 | 275 | 6.4 | 16.1 | 0.00 | 0.00 | 0.00 | 31 | 1019.8 |
| 20260906194606 | 30 | 275 | 6.4 | 16.1 | 0.00 | 0.00 | 0.00 | 30 | 1019.7 |
| 20260906194050 | 30 | 0 | 6.4 | 16.1 | 0.00 | 0.00 | 0.00 | 32 | 1019.8 |
| 20260906193550 | 30 | 279 | 4.8 | 16.1 | 0.00 | 0.00 | 0.00 | 32 | 1019.8 |
| 20260906193101 | 30 | 0 | 1.6 | 16.1 | 0.00 | 0.00 | 0.00 | 33 | 1019.8 |
| 20260906192550 | 29 | 284 | 4.8 | 16.1 | 0.00 | 0.00 | 0.00 | 30 | 1020.0 |
| 20260906192050 | 29 | 0 | 6.4 | 14.5 | 0.00 | 0.00 | 0.00 | 33 | 1020.1 |
| 20260906191602 | 29 | 285 | 1.6 | 11.3 | 0.00 | 0.00 | 0.00 | 34 | 1020.2 |
| 20260906191049 | 28 | 0 | 0.0 | 14.5 | 0.00 | 0.00 | 0.00 | 35 | 1020.3 |
| 20260906190548 | 28 | 286 | 4.8 | 16.1 | 0.00 | 0.00 | 0.00 | 35 | 1020.2 |
| 20260906190113 | 28 | 286 | 4.8 | 16.1 | 0.00 | 0.00 | 0.00 | 36 | 1020.4 |
| 20260906185556 | 28 | 288 | 4.8 | 14.5 | 0.00 | 0.00 | 0.00 | 36 | 1020.5 |
| 20260906185051 | 28 | 0 | 3.2 | 12.9 | 0.00 | 0.00 | 0.00 | 36 | 1020.6 |
| 20260906184600 | 28 | 291 | 4.8 | 12.9 | 0.00 | 0.00 | 0.00 | 36 | 1020.5 |
| 20260906184049 | 28 | 292 | 1.6 | 12.9 | 0.00 | 0.00 | 0.00 | 37 | 1020.7 |
| 20260906183550 | 28 | 292 | 1.6 | 12.9 | 0.00 | 0.00 | 0.00 | 39 | 1020.8 |
| 20260906183111 | 28 | 294 | 0.0 | 12.9 | 0.00 | 0.00 | 0.00 | 39 | 1020.9 |
| 20260906182550 | 28 | 0 | 1.6 | 12.9 | 0.00 | 0.00 | 0.00 | 38 | 1021.0 |
| 20260906182050 | 28 | 294 | 3.2 | 12.9 | 0.00 | 0.00 | 0.00 | 38 | 1021.1 |
| 20260906181602 | 27 | 296 | 6.4 | 12.9 | 0.00 | 0.00 | 0.00 | 40 | 1021.1 |
| 20260906181053 | 27 | 0 | 1.6 | 14.5 | 0.00 | 0.00 | 0.00 | 41 | 1021.2 |
| 20260906180550 | 27 | 296 | 6.4 | 14.5 | 0.00 | 0.00 | 0.00 | 40 | 1021.4 |
| 20260906180119 | 27 | 296 | 4.8 | 12.9 | 0.00 | 0.00 | 0.00 | 40 | 1021.5 |
| 20260906175550 | 27 | 0 | 4.8 | 14.5 | 0.00 | 0.00 | 0.00 | 41 | 1021.5 |
| 20260906175049 | 27 | 301 | 3.2 | 14.5 | 0.00 | 0.00 | 0.00 | 41 | 1021.8 |
| 20260906174602 | 27 | 304 | 0.0 | 14.5 | 0.00 | 0.00 | 0.00 | 41 | 1021.8 |
| 20260906174050 | 27 | 304 | 1.6 | 16.1 | 0.00 | 0.00 | 0.00 | 40 | 1021.8 |
| 20260906173554 | 27 | 304 | 1.6 | 16.1 | 0.00 | 0.00 | 0.00 | 40 | 1021.9 |
| 20260906173116 | 27 | 0 | 1.6 | 16.1 | 0.00 | 0.00 | 0.00 | 40 | 1021.9 |
| 20260906172550 | 27 | 312 | 3.2 | 16.1 | 0.00 | 0.00 | 0.00 | 40 | 1021.8 |
| 20260906172050 | 26 | 0 | 1.6 | 16.1 | 0.00 | 0.00 | 0.00 | 42 | 1021.9 |
| 20260906171600 | 26 | 315 | 3.2 | 14.5 | 0.00 | 0.00 | 0.00 | 41 | 1021.9 |
| 20260906171050 | 26 | 315 | 4.8 | 14.5 | 0.00 | 0.00 | 0.00 | 41 | 1021.9 |
| 20260906170550 | 26 | 318 | 4.8 | 14.5 | 0.00 | 0.00 | 0.00 | 40 | 1021.9 |
| 20260906170121 | 26 | 0 | 4.8 | 12.9 | 0.00 | 0.00 | 0.00 | 41 | 1022.0 |
| 20260906165550 | 25 | 0 | 3.2 | 12.9 | 0.00 | 0.00 | 0.00 | 44 | 1022.0 |
| 20260906165051 | 25 | 0 | 3.2 | 9.7 | 0.00 | 0.00 | 0.00 | 45 | 1022.1 |
| 20260906164603 | 25 | 0 | 1.6 | 9.7 | 0.00 | 0.00 | 0.00 | 45 | 1022.2 |
| 20260906164050 | 25 | 0 | 3.2 | 9.7 | 0.00 | 0.00 | 0.00 | 45 | 1022.3 |
| 20260906163550 | 25 | 0 | 4.8 | 12.9 | 0.00 | 0.00 | 0.00 | 46 | 1022.3 |
| 20260906163104 | 25 | 336 | 4.8 | 12.9 | 0.00 | 0.00 | 0.00 | 47 | 1022.3 |
| 20260906162551 | 25 | 340 | 4.8 | 9.7 | 0.00 | 0.00 | 0.00 | 48 | 1022.3 |
| 20260906162050 | 24 | 0 | 1.6 | 9.7 | 0.00 | 0.00 | 0.00 | 48 | 1022.3 |
| 20260906161556 | 24 | 343 | 4.8 | 9.7 | 0.00 | 0.00 | 0.00 | 48 | 1022.3 |
| 20260906161050 | 24 | 0 | 1.6 | 8.0 | 0.00 | 0.00 | 0.00 | 47 | 1022.2 |
| 20260906160550 | 24 | 344 | 3.2 | 8.0 | 0.00 | 0.00 | 0.00 | 47 | 1022.2 |
| 20260906160058 | 24 | 344 | 3.2 | 12.9 | 0.00 | 0.00 | 0.00 | 47 | 1022.3 |
| 20260906155550 | 23 | 344 | 1.6 | 12.9 | 0.00 | 0.00 | 0.00 | 48 | 1022.2 |
| 20260906155045 | 23 | 346 | 1.6 | 12.9 | 0.00 | 0.00 | 0.00 | 48 | 1022.2 |
| 20260906154553 | 23 | 345 | 4.8 | 9.7 | 0.00 | 0.00 | 0.00 | 49 | 1022.1 |
| 20260906154047 | 22 | 345 | 4.8 | 9.7 | 0.00 | 0.00 | 0.00 | 48 | 1022.2 |
| 20260906153545 | 22 | 345 | 0.0 | 9.7 | 0.00 | 0.00 | 0.00 | 47 | 1022.3 |
| 20260906153057 | 22 | 345 | 1.6 | 6.4 | 0.00 | 0.00 | 0.00 | 47 | 1022.2 |
| 20260906152546 | 21 | 0 | 0.0 | 6.4 | 0.00 | 0.00 | 0.00 | 48 | 1022.3 |
| 20260906152046 | 21 | 345 | 0.0 | 0.0 | 0.00 | 0.00 | 0.00 | 48 | 1022.3 |
| 20260906151608 | 21 | 0 | 0.0 | 8.0 | 0.00 | 0.00 | 0.00 | 49 | 1022.5 |
| 20260906151049 | 21 | 0 | 0.0 | 8.0 | 0.00 | 0.00 | 0.00 | 50 | 1022.5 |
| 20260906150546 | 21 | 345 | 1.6 | 4.8 | 0.00 | 0.00 | 0.00 | 52 | 1022.5 |
| 20260906150105 | 21 | 0 | 0.0 | 4.8 | 0.00 | 0.00 | 0.00 | 54 | 1022.3 |
| 20260906145548 | 20 | 345 | 0.0 | 6.4 | 0.00 | 0.00 | 0.00 | 54 | 1022.4 |
| 20260906145050 | 20 | 345 | 1.6 | 6.4 | 0.00 | 0.00 | 0.00 | 55 | 1022.4 |
| 20260906144600 | 20 | 345 | 0.0 | 4.8 | 0.00 | 0.00 | 0.00 | 57 | 1022.3 |
| 20260906144047 | 20 | 0 | 0.0 | 0.0 | 0.00 | 0.00 | 0.00 | 56 | 1022.3 |
| 20260906143548 | 20 | 0 | 0.0 | 0.0 | 0.00 | 0.00 | 0.00 | 54 | 1022.3 |
| 20260906143128 | 20 | 0 | 0.0 | 0.0 | 0.00 | 0.00 | 0.00 | 54 | 1022.2 |
| 20260906142549 | 20 | 0 | 0.0 | 4.8 | 0.00 | 0.00 | 0.00 | 55 | 1022.2 |
| 20260906142046 | 19 | 0 | 0.0 | 4.8 | 0.00 | 0.00 | 0.00 | 56 | 1022.1 |
| 20260906141555 | 19 | 345 | 0.0 | 0.0 | 0.00 | 0.00 | 0.00 | 58 | 1022.1 |
| 20260906141046 | 19 | 0 | 0.0 | 3.2 | 0.00 | 0.00 | 0.00 | 58 | 1022.2 |
| 20260906140547 | 19 | 0 | 0.0 | 3.2 | 0.00 | 0.00 | 0.00 | 59 | 1022.3 |
| 20260906140100 | 18 | 0 | 0.0 | 0.0 | 0.00 | 0.00 | 0.00 | 61 | 1022.3 |
| 20260906135547 | 18 | 0 | 0.0 | 0.0 | 0.00 | 0.00 | 0.00 | 61 | 1022.3 |
| 20260906135049 | 18 | 0 | 0.0 | 3.2 | 0.00 | 0.00 | 0.00 | 62 | 1022.3 |
| 20260906134603 | 18 | 0 | 0.0 | 3.2 | 0.00 | 0.00 | 0.00 | 63 | 1022.3 |
| 20260906134047 | 17 | 0 | 0.0 | 0.0 | 0.00 | 0.00 | 0.00 | 65 | 1022.3 |
| 20260906133549 | 17 | 0 | 0.0 | 0.0 | 0.00 | 0.00 | 0.00 | 65 | 1022.3 |
| 20260906133058 | 17 | 0 | 0.0 | 0.0 | 0.00 | 0.00 | 0.00 | 66 | 1022.3 |
| 20260906132547 | 17 | 0 | 0.0 | 0.0 | 0.00 | 0.00 | 0.00 | 66 | 1022.3 |
| 20260906132045 | 17 | 0 | 0.0 | 0.0 | 0.00 | 0.00 | 0.00 | 66 | 1022.3 |
| 20260906131603 | 17 | 0 | 0.0 | 0.0 | 0.00 | 0.00 | 0.00 | 66 | 1022.3 |
| 20260906131046 | 17 | 0 | 0.0 | 0.0 | 0.00 | 0.00 | 0.00 | 65 | 1022.1 |
| 20260906130546 | 17 | 0 | 0.0 | 0.0 | 0.00 | 0.00 | 0.00 | 62 | 1022.0 |
| 20260906130057 | 17 | 0 | 0.0 | 3.2 | 0.00 | 0.00 | 0.00 | 62 | 1022.1 |
| 20260906125546 | 16 | 0 | 0.0 | 3.2 | 0.00 | 0.00 | 0.00 | 63 | 1022.0 |
| 20260906125049 | 17 | 345 | 0.0 | 0.0 | 0.00 | 0.00 | 0.00 | 63 | 1022.0 |
| 20260906124600 | 17 | 0 | 0.0 | 0.0 | 0.00 | 0.00 | 0.00 | 64 | 1021.8 |
| 20260906124050 | 17 | 0 | 0.0 | 0.0 | 0.00 | 0.00 | 0.00 | 64 | 1021.9 |
| 20260906123550 | 17 | 0 | 0.0 | 0.0 | 0.00 | 0.00 | 0.00 | 63 | 1021.7 |
| 20260906123135 | 17 | 0 | 0.0 | 0.0 | 0.00 | 0.00 | 0.00 | 63 | 1021.8 |
| 20260906122550 | 16 | 0 | 0.0 | 0.0 | 0.00 | 0.00 | 0.00 | 63 | 1021.7 |
| 20260906122050 | 16 | 0 | 0.0 | 0.0 | 0.00 | 0.00 | 0.00 | 62 | 1021.6 |
| 20260906121604 | 16 | 0 | 0.0 | 0.0 | 0.00 | 0.00 | 0.00 | 63 | 1021.7 |
| 20260906121050 | 17 | 0 | 0.0 | 0.0 | 0.00 | 0.00 | 0.00 | 66 | 1021.6 |
| 20260906120547 | 17 | 0 | 0.0 | 0.0 | 0.00 | 0.00 | 0.00 | 68 | 1021.7 |
| 20260906120059 | 17 | 0 | 0.0 | 0.0 | 0.00 | 0.00 | 0.00 | 67 | 1021.7 |
| 20260906115550 | 17 | 0 | 0.0 | 0.0 | 0.00 | 0.00 | 0.00 | 68 | 1021.7 |
| 20260906115050 | 17 | 0 | 0.0 | 0.0 | 0.00 | 0.00 | 0.00 | 69 | 1021.6 |
| 20260906114610 | 17 | 0 | 0.0 | 0.0 | 0.00 | 0.00 | 0.00 | 68 | 1021.7 |
| 20260906114049 | 17 | 0 | 0.0 | 0.0 | 0.00 | 0.00 | 0.00 | 71 | 1021.7 |
| 20260906113550 | 17 | 0 | 0.0 | 0.0 | 0.00 | 0.00 | 0.00 | 70 | 1021.8 |
| 20260906113104 | 17 | 0 | 0.0 | 0.0 | 0.00 | 0.00 | 0.00 | 69 | 1021.7 |
| 20260906112550 | 17 | 0 | 0.0 | 0.0 | 0.00 | 0.00 | 0.00 | 70 | 1021.7 |
| 20260906112049 | 17 | 0 | 0.0 | 0.0 | 0.00 | 0.00 | 0.00 | 70 | 1021.5 |
| 20260906111559 | 17 | 0 | 0.0 | 0.0 | 0.00 | 0.00 | 0.00 | 69 | 1021.5 |
| 20260906111050 | 17 | 0 | 0.0 | 0.0 | 0.00 | 0.00 | 0.00 | 69 | 1021.7 |
| 20260906110550 | 17 | 0 | 0.0 | 0.0 | 0.00 | 0.00 | 0.00 | 68 | 1021.6 |
| 20260906110105 | 17 | 0 | 0.0 | 0.0 | 0.00 | 0.00 | 0.00 | 67 | 1021.7 |
| 20260906105550 | 18 | 0 | 0.0 | 0.0 | 0.00 | 0.00 | 0.00 | 66 | 1021.8 |
| 20260906105049 | 18 | 0 | 0.0 | 0.0 | 0.00 | 0.00 | 0.00 | 66 | 1021.7 |
| 20260906104556 | 18 | 0 | 0.0 | 0.0 | 0.00 | 0.00 | 0.00 | 66 | 1021.8 |
| 20260906104049 | 18 | 0 | 0.0 | 0.0 | 0.00 | 0.00 | 0.00 | 66 | 1021.8 |
| 20260906103550 | 18 | 0 | 0.0 | 0.0 | 0.00 | 0.00 | 0.00 | 65 | 1021.9 |
| 20260906103106 | 18 | 0 | 0.0 | 0.0 | 0.00 | 0.00 | 0.00 | 64 | 1021.8 |
| 20260906102551 | 18 | 0 | 0.0 | 8.0 | 0.00 | 0.00 | 0.00 | 63 | 1021.8 |
| 20260906102051 | 18 | 0 | 0.0 | 8.0 | 0.00 | 0.00 | 0.00 | 63 | 1021.8 |
| 20260906101604 | 18 | 0 | 0.0 | 3.2 | 0.00 | 0.00 | 0.00 | 60 | 1021.8 |
| 20260906101050 | 18 | 0 | 0.0 | 3.2 | 0.00 | 0.00 | 0.00 | 57 | 1021.8 |
| 20260906100553 | 18 | 0 | 0.0 | 0.0 | 0.00 | 0.00 | 0.00 | 54 | 1021.9 |
| 20260906100059 | 18 | 0 | 0.0 | 0.0 | 0.00 | 0.00 | 0.00 | 48 | 1021.8 |
| 20260906095550 | 19 | 0 | 0.0 | 0.0 | 0.00 | 0.00 | 0.00 | 47 | 1021.6 |
| 20260906095050 | 19 | 0 | 0.0 | 0.0 | 0.00 | 0.00 | 0.00 | 46 | 1021.5 |
| 20260906094608 | 19 | 0 | 0.0 | 0.0 | 0.00 | 0.00 | 0.00 | 46 | 1021.4 |
| 20260906094050 | 19 | 0 | 0.0 | 0.0 | 0.00 | 0.00 | 0.00 | 45 | 1021.4 |
| 20260906093550 | 20 | 0 | 0.0 | 0.0 | 0.00 | 0.00 | 0.00 | 45 | 1021.4 |
| 20260906093100 | 20 | 0 | 0.0 | 0.0 | 0.00 | 0.00 | 0.00 | 44 | 1021.4 |
| 20260906092550 | 20 | 0 | 0.0 | 0.0 | 0.00 | 0.00 | 0.00 | 44 | 1021.3 |
| 20260906092050 | 20 | 0 | 0.0 | 0.0 | 0.00 | 0.00 | 0.00 | 43 | 1021.2 |
| 20260906091605 | 20 | 0 | 0.0 | 0.0 | 0.00 | 0.00 | 0.00 | 42 | 1021.2 |
| 20260906091053 | 20 | 0 | 0.0 | 0.0 | 0.00 | 0.00 | 0.00 | 42 | 1021.2 |
| 20260906090550 | 21 | 0 | 0.0 | 0.0 | 0.00 | 0.00 | 0.00 | 42 | 1021.1 |
| 20260906085550 | 21 | 0 | 0.0 | 0.0 | 0.00 | 0.00 | 0.00 | 41 | 1021.1 |
| 20260906085049 | 21 | 0 | 0.0 | 0.0 | 0.00 | 0.00 | 0.00 | 41 | 1021.1 |
| 20260906084605 | 21 | 0 | 0.0 | 3.2 | 0.00 | 0.00 | 0.00 | 40 | 1021.0 |
| 20260906084050 | 21 | 0 | 0.0 | 6.4 | 0.00 | 0.00 | 0.00 | 40 | 1021.0 |
| 20260906083552 | 21 | 0 | 0.0 | 6.4 | 0.00 | 0.00 | 0.00 | 40 | 1021.1 |
| 20260906083104 | 21 | 0 | 0.0 | 0.0 | 0.00 | 0.00 | 0.00 | 41 | 1021.1 |
| 20260906082547 | 21 | 0 | 0.0 | 0.0 | 0.00 | 0.00 | 0.00 | 41 | 1021.1 |
| 20260906082052 | 21 | 0 | 0.0 | 0.0 | 0.00 | 0.00 | 0.00 | 40 | 1021.2 |
| 20260906081559 | 21 | 0 | 0.0 | 0.0 | 0.00 | 0.00 | 0.00 | 40 | 1021.4 |
| 20260906081050 | 21 | 0 | 0.0 | 0.0 | 0.00 | 0.00 | 0.00 | 40 | 1021.3 |
| 20260906080549 | 21 | 0 | 0.0 | 0.0 | 0.00 | 0.00 | 0.00 | 40 | 1021.3 |
| 20260906075550 | 21 | 0 | 0.0 | 0.0 | 0.00 | 0.00 | 0.00 | 40 | 1021.4 |
| 20260906075050 | 21 | 0 | 0.0 | 0.0 | 0.00 | 0.00 | 0.00 | 40 | 1021.4 |
| 20260906074604 | 21 | 0 | 0.0 | 0.0 | 0.00 | 0.00 | 0.00 | 40 | 1021.5 |
| 20260906074051 | 21 | 0 | 0.0 | 0.0 | 0.00 | 0.00 | 0.00 | 40 | 1021.5 |
| 20260906073550 | 21 | 0 | 0.0 | 0.0 | 0.00 | 0.00 | 0.00 | 40 | 1021.5 |
| 20260906073100 | 21 | 0 | 0.0 | 0.0 | 0.00 | 0.00 | 0.00 | 40 | 1021.4 |
| 20260906072550 | 21 | 0 | 0.0 | 0.0 | 0.00 | 0.00 | 0.00 | 40 | 1021.5 |
| 20260906072050 | 21 | 0 | 0.0 | 0.0 | 0.00 | 0.00 | 0.00 | 41 | 1021.5 |
| 20260906071555 | 21 | 0 | 0.0 | 0.0 | 0.00 | 0.00 | 0.00 | 41 | 1021.5 |
| 20260906071050 | 21 | 0 | 0.0 | 0.0 | 0.00 | 0.00 | 0.00 | 41 | 1021.4 |
| 20260906070551 | 21 | 0 | 0.0 | 0.0 | 0.00 | 0.00 | 0.00 | 41 | 1021.3 |
| 20260906070104 | 21 | 0 | 0.0 | 0.0 | 0.00 | 0.00 | 0.00 | 41 | 1021.2 |
| 20260906065550 | 21 | 0 | 0.0 | 0.0 | 0.00 | 0.00 | 0.00 | 41 | 1021.3 |
| 20260906065053 | 21 | 0 | 0.0 | 0.0 | 0.00 | 0.00 | 0.00 | 41 | 1021.4 |
| 20260906064557 | 21 | 0 | 0.0 | 0.0 | 0.00 | 0.00 | 0.00 | 41 | 1021.4 |
| 20260906064050 | 21 | 0 | 0.0 | 12.9 | 0.00 | 0.00 | 0.00 | 41 | 1021.5 |
| 20260906063546 | 21 | 0 | 1.6 | 12.9 | 0.00 | 0.00 | 0.00 | 41 | 1021.6 |
| 20260906063102 | 21 | 345 | 1.6 | 6.4 | 0.00 | 0.00 | 0.00 | 41 | 1021.7 |
| 20260906062546 | 22 | 0 | 0.0 | 0.0 | 0.00 | 0.00 | 0.00 | 41 | 1021.8 |
| 20260906062048 | 22 | 0 | 0.0 | 0.0 | 0.00 | 0.00 | 0.00 | 40 | 1021.8 |
| 20260906061558 | 22 | 0 | 0.0 | 0.0 | 0.00 | 0.00 | 0.00 | 39 | 1021.9 |
| 20260906061046 | 22 | 0 | 0.0 | 0.0 | 0.00 | 0.00 | 0.00 | 39 | 1022.1 |
| 20260906060546 | 23 | 0 | 0.0 | 4.8 | 0.00 | 0.00 | 0.00 | 38 | 1022.1 |
| 20260906060105 | 23 | 0 | 0.0 | 4.8 | 0.00 | 0.00 | 0.00 | 38 | 1022.1 |
| 20260906055547 | 23 | 345 | 0.0 | 12.9 | 0.00 | 0.00 | 0.00 | 37 | 1022.1 |
| 20260906055046 | 23 | 0 | 1.6 | 12.9 | 0.00 | 0.00 | 0.00 | 37 | 1021.9 |
| 20260906054556 | 23 | 0 | 0.0 | 0.0 | 0.00 | 0.00 | 0.00 | 37 | 1021.9 |
| 20260906054047 | 23 | 0 | 0.0 | 0.0 | 0.00 | 0.00 | 0.00 | 37 | 1021.7 |
| 20260906053546 | 23 | 0 | 0.0 | 0.0 | 0.00 | 0.00 | 0.00 | 36 | 1021.7 |
| 20260906053104 | 23 | 0 | 0.0 | 0.0 | 0.00 | 0.00 | 0.00 | 35 | 1021.7 |
| 20260906052548 | 23 | 0 | 0.0 | 0.0 | 0.00 | 0.00 | 0.00 | 35 | 1021.5 |
| 20260906052047 | 23 | 0 | 0.0 | 0.0 | 0.00 | 0.00 | 0.00 | 35 | 1021.5 |
| 20260906051556 | 23 | 0 | 0.0 | 0.0 | 0.00 | 0.00 | 0.00 | 35 | 1021.5 |
| 20260906051050 | 23 | 0 | 0.0 | 0.0 | 0.00 | 0.00 | 0.00 | 35 | 1021.5 |
| 20260906050548 | 23 | 0 | 0.0 | 0.0 | 0.00 | 0.00 | 0.00 | 35 | 1021.4 |
| 20260906050056 | 23 | 0 | 0.0 | 0.0 | 0.00 | 0.00 | 0.00 | 35 | 1021.5 |
| 20260906045548 | 23 | 0 | 0.0 | 0.0 | 0.00 | 0.00 | 0.00 | 35 | 1021.4 |
| 20260906045046 | 23 | 0 | 0.0 | 0.0 | 0.00 | 0.00 | 0.00 | 37 | 1021.4 |
| 20260906044557 | 23 | 0 | 0.0 | 12.9 | 0.00 | 0.00 | 0.00 | 36 | 1021.4 |
| 20260906044047 | 23 | 0 | 0.0 | 12.9 | 0.00 | 0.00 | 0.00 | 36 | 1021.4 |
| 20260906043547 | 23 | 352 | 3.2 | 9.7 | 0.00 | 0.00 | 0.00 | 38 | 1021.5 |
| 20260906043100 | 24 | 0 | 3.2 | 9.7 | 0.00 | 0.00 | 0.00 | 38 | 1021.5 |
| 20260906042547 | 24 | 360 | 4.8 | 9.7 | 0.00 | 0.00 | 0.00 | 34 | 1021.4 |
| 20260906042046 | 24 | 360 | 3.2 | 9.7 | 0.00 | 0.00 | 0.00 | 33 | 1021.2 |
| 20260906041603 | 24 | 360 | 1.6 | 8.0 | 0.00 | 0.00 | 0.00 | 33 | 1021.2 |
| 20260906041046 | 24 | 0 | 0.0 | 0.0 | 0.00 | 0.00 | 0.00 | 32 | 1021.1 |
| 20260906040550 | 24 | 0 | 0.0 | 0.0 | 0.00 | 0.00 | 0.00 | 32 | 1021.0 |
| 20260906040058 | 25 | 0 | 0.0 | 0.0 | 0.00 | 0.00 | 0.00 | 31 | 1020.9 |
| 20260906035546 | 25 | 0 | 0.0 | 0.0 | 0.00 | 0.00 | 0.00 | 31 | 1020.9 |
| 20260906035047 | 25 | 0 | 0.0 | 6.4 | 0.00 | 0.00 | 0.00 | 31 | 1020.8 |
| 20260906034556 | 25 | 0 | 0.0 | 6.4 | 0.00 | 0.00 | 0.00 | 30 | 1020.8 |
| 20260906034046 | 25 | 360 | 0.0 | 6.4 | 0.00 | 0.00 | 0.00 | 30 | 1020.7 |
| 20260906033549 | 26 | 0 | 0.0 | 8.0 | 0.00 | 0.00 | 0.00 | 29 | 1020.5 |
| 20260906033111 | 26 | 352 | 0.0 | 8.0 | 0.00 | 0.00 | 0.00 | 29 | 1020.4 |
| 20260906032550 | 26 | 360 | 0.0 | 14.5 | 0.00 | 0.00 | 0.00 | 29 | 1020.5 |
| 20260906032050 | 26 | 0 | 4.8 | 17.7 | 0.00 | 0.00 | 0.00 | 29 | 1020.4 |
| 20260906031600 | 26 | 360 | 3.2 | 17.7 | 0.00 | 0.00 | 0.00 | 29 | 1020.3 |
| 20260906031053 | 26 | 344 | 4.8 | 16.1 | 0.00 | 0.00 | 0.00 | 29 | 1020.3 |
| 20260906030549 | 25 | 351 | 1.6 | 16.1 | 0.00 | 0.00 | 0.00 | 29 | 1020.2 |
| 20260906025549 | 25 | 5 | 6.4 | 17.7 | 0.00 | 0.00 | 0.00 | 30 | 1020.1 |
| 20260906025050 | 25 | 42 | 1.6 | 9.7 | 0.00 | 0.00 | 0.00 | 30 | 1020.1 |
| 20260906024603 | 25 | 0 | 0.0 | 9.7 | 0.00 | 0.00 | 0.00 | 30 | 1020.1 |
| 20260906024049 | 25 | 0 | 1.6 | 16.1 | 0.00 | 0.00 | 0.00 | 30 | 1020.0 |
| 20260906023551 | 25 | 0 | 0.0 | 16.1 | 0.00 | 0.00 | 0.00 | 30 | 1020.1 |
| 20260906023103 | 25 | 0 | 0.0 | 20.9 | 0.00 | 0.00 | 0.00 | 30 | 1020.1 |
| 20260906022550 | 25 | 360 | 4.8 | 20.9 | 0.00 | 0.00 | 0.00 | 30 | 1020.0 |
| 20260906022052 | 25 | 324 | 1.6 | 29.0 | 0.00 | 0.00 | 0.00 | 31 | 1019.9 |
| 20260906021616 | 25 | 341 | 4.8 | 29.0 | 0.00 | 0.00 | 0.00 | 31 | 1019.9 |
| 20260906021049 | 25 | 352 | 12.9 | 30.6 | 0.00 | 0.00 | 0.00 | 31 | 1019.8 |
| 20260906020550 | 25 | 19 | 14.5 | 30.6 | 0.00 | 0.00 | 0.00 | 32 | 1019.6 |
| 20260906020108 | 25 | 5 | 16.1 | 29.0 | 0.00 | 0.00 | 0.00 | 32 | 1019.6 |
| 20260906015549 | 25 | 5 | 11.3 | 22.5 | 0.00 | 0.00 | 0.00 | 32 | 1019.7 |
| 20260906015049 | 25 | 10 | 12.9 | 22.5 | 0.00 | 0.00 | 0.00 | 32 | 1020.0 |
| 20260906014603 | 25 | 352 | 11.3 | 22.5 | 0.00 | 0.00 | 0.00 | 31 | 1020.0 |
| 20260906014050 | 25 | 352 | 12.9 | 24.1 | 0.00 | 0.00 | 0.00 | 31 | 1020.0 |
| 20260906013554 | 25 | 5 | 11.3 | 24.1 | 0.00 | 0.00 | 0.00 | 31 | 1020.0 |
| 20260906013111 | 25 | 352 | 14.5 | 24.1 | 0.00 | 0.00 | 0.00 | 30 | 1019.9 |
| 20260906012552 | 25 | 352 | 11.3 | 19.3 | 0.00 | 0.00 | 0.00 | 30 | 1019.8 |
| 20260906012049 | 25 | 5 | 11.3 | 20.9 | 0.00 | 0.00 | 0.00 | 30 | 1019.8 |
| 20260906011610 | 26 | 352 | 12.9 | 22.5 | 0.00 | 0.00 | 0.00 | 30 | 1019.9 |
| 20260906011052 | 26 | 11 | 14.5 | 24.1 | 0.00 | 0.00 | 0.00 | 30 | 1019.9 |
| 20260906010549 | 26 | 28 | 11.3 | 24.1 | 0.00 | 0.00 | 0.00 | 30 | 1020.1 |
| 20260906010107 | 26 | 14 | 12.9 | 24.1 | 0.00 | 0.00 | 0.00 | 30 | 1020.2 |
| 20260906005549 | 26 | 360 | 9.7 | 29.0 | 0.00 | 0.00 | 0.00 | 30 | 1020.2 |
| 20260906005050 | 26 | 352 | 12.9 | 29.0 | 0.00 | 0.00 | 0.00 | 30 | 1020.4 |
| 20260906004610 | 26 | 19 | 14.5 | 29.0 | 0.00 | 0.00 | 0.00 | 29 | 1020.4 |
| 20260906004050 | 26 | 352 | 8.0 | 19.3 | 0.00 | 0.00 | 0.00 | 29 | 1020.6 |
| 20260906003550 | 26 | 24 | 6.4 | 12.9 | 0.00 | 0.00 | 0.00 | 29 | 1020.7 |
| 20260906003106 | 26 | 28 | 1.6 | 17.7 | 0.00 | 0.00 | 0.00 | 28 | 1020.6 |
| 20260906002919 | 26 | 28 | 4.8 | 25.7 | 0.00 | 0.00 | 0.00 | 29 | 1020.3 |
| 20260906002047 | 27 | 27 | 11.3 | 27.4 | 0.00 | 0.00 | 0.00 | 29 | 1020.2 |
| 20260906001607 | 27 | 352 | 12.9 | 27.4 | 0.00 | 0.00 | 0.00 | 27 | 1020.6 |
| 20260906001046 | 27 | 306 | 4.8 | 19.3 | 0.00 | 0.00 | 0.00 | 26 | 1020.7 |
| 20260906000546 | 27 | 0 | 0.0 | 8.0 | 0.00 | 0.00 | 0.00 | 25 | 1020.6 |
| 20260906000106 | 27 | 0 | 3.2 | 12.9 | 0.00 | 0.00 | 0.00 | 25 | 1020.3 |
| 20260905235548 | 27 | 0 | 3.2 | 12.9 | 0.00 | 0.00 | 0.00 | 25 | 1020.2 |
| 20260905235046 | 28 | 24 | 3.2 | 9.7 | 0.00 | 0.00 | 0.00 | 24 | 1020.1 |
| 20260905234559 | 28 | 25 | 3.2 | 14.5 | 0.00 | 0.00 | 0.00 | 24 | 1020.2 |
| 20260905234046 | 28 | 24 | 4.8 | 14.5 | 0.00 | 0.00 | 0.00 | 24 | 1020.2 |
| 20260905233546 | 28 | 0 | 0.0 | 8.0 | 0.00 | 0.00 | 0.00 | 24 | 1020.2 |
| 20260905233059 | 28 | 23 | 0.0 | 9.7 | 0.00 | 0.00 | 0.00 | 24 | 1020.2 |
| 20260905232548 | 28 | 23 | 3.2 | 9.7 | 0.00 | 0.00 | 0.00 | 24 | 1020.1 |
| 20260905232047 | 28 | 22 | 1.6 | 9.7 | 0.00 | 0.00 | 0.00 | 25 | 1020.2 |
| 20260905231603 | 27 | 0 | 3.2 | 9.7 | 0.00 | 0.00 | 0.00 | 25 | 1020.2 |
| 20260905231046 | 27 | 22 | 1.6 | 12.9 | 0.00 | 0.00 | 0.00 | 25 | 1020.2 |
| 20260905230546 | 27 | 22 | 1.6 | 19.3 | 0.00 | 0.00 | 0.00 | 26 | 1020.2 |
| 20260905230059 | 27 | 17 | 1.6 | 29.0 | 0.00 | 0.00 | 0.00 | 26 | 1019.8 |
| 20260905225549 | 27 | 19 | 8.0 | 35.4 | 0.00 | 0.00 | 0.00 | 25 | 1019.8 |
| 20260905225049 | 28 | 13 | 14.5 | 35.4 | 0.00 | 0.00 | 0.00 | 25 | 1020.0 |
| 20260905224600 | 29 | 27 | 8.0 | 24.1 | 0.00 | 0.00 | 0.00 | 23 | 1019.9 |
| 20260905224050 | 30 | 337 | 9.7 | 24.1 | 0.00 | 0.00 | 0.00 | 21 | 1019.8 |
| 20260905223552 | 30 | 161 | 0.0 | 0.0 | 0.00 | 0.00 | 0.00 | 20 | 1019.8 |
| 20260905223101 | 31 | 0 | 0.0 | 6.4 | 0.00 | 0.00 | 0.00 | 20 | 1019.8 |
| 20260905222549 | 31 | 0 | 0.0 | 9.7 | 0.00 | 0.00 | 0.00 | 19 | 1019.7 |
| 20260905222049 | 31 | 161 | 1.6 | 9.7 | 0.00 | 0.00 | 0.00 | 19 | 1019.6 |